Location: Meanaryar
(48.4161°N, 4.7315°W)
Time: 15:14:54
(UTC+00:00)

Cosmos 1092 Rocket - Pass Details

Date: 23 January 2021
Orbit: 954 x 995 km, 83.0° (Epoch: 01 March)

Event Time Altitude Azimuth Distance (km) Brightness Sun altitude
Rises 04:33:47 0° 359° (N) 3,645 7.1 -33.7°
Reaches altitude 10° 04:36:53 10° 13° (NNE) 2,695 6.5 -33.2°
Maximum altitude 04:41:38 23° 64° (ENE) 1,926 6.1 -32.4°
Drops below altitude 10° 04:46:23 10° 115° (ESE) 2,693 7.0 -31.6°
Sets 04:49:28 0° 130° (SE) 3,640 7.6 -31.1°
